TimeEDT,TemperatureF,Dew PointF,Humidity,Sea Level PressureIn,VisibilityMPH,Wind Direction,Wind SpeedMPH,Gust SpeedMPH,PrecipitationIn,Events,Conditions,WindDirDegrees,DateUTC
12:15 AM,64.9,54.3,68,30.07,10.0,Calm,Calm,-,N/A,,Clear,0,2013-04-10 04:15:00
12:35 AM,67.1,54.1,63,30.08,10.0,SW,4.6,-,N/A,,Clear,220,2013-04-10 04:35:00
12:55 AM,68.9,54.3,60,30.08,10.0,SSW,4.6,-,N/A,,Clear,210,2013-04-10 04:55:00
1:15 AM,69.8,54.3,58,30.08,10.0,SW,4.6,-,N/A,,Clear,220,2013-04-10 05:15:00
1:35 AM,69.8,54.3,58,30.07,10.0,SW,3.5,-,N/A,,Clear,220,2013-04-10 05:35:00
1:55 AM,69.1,54.5,60,30.07,10.0,SW,4.6,-,N/A,,Clear,230,2013-04-10 05:55:00
2:15 AM,68.5,54.1,60,30.08,10.0,Calm,Calm,-,N/A,,Clear,0,2013-04-10 06:15:00
2:35 AM,68.0,54.1,61,30.07,10.0,Calm,Calm,-,N/A,,Clear,0,2013-04-10 06:35:00
2:55 AM,68.0,54.1,61,30.07,10.0,SW,3.5,-,N/A,,Clear,220,2013-04-10 06:55:00
3:15 AM,68.0,54.5,62,30.07,10.0,SW,4.6,-,N/A,,Clear,230,2013-04-10 07:15:00
3:35 AM,68.0,54.1,61,30.07,10.0,Calm,Calm,-,N/A,,Clear,0,2013-04-10 07:35:00
3:55 AM,64.6,54.9,71,30.07,10.0,Calm,Calm,-,N/A,,Clear,0,2013-04-10 07:55:00
4:15 AM,62.8,54.9,75,30.07,10.0,SSW,4.6,-,N/A,,Clear,210,2013-04-10 08:15:00
4:35 AM,66.6,54.3,65,30.08,10.0,Calm,Calm,-,N/A,,Clear,0,2013-04-10 08:35:00
4:55 AM,64.4,54.0,69,30.08,10.0,Calm,Calm,-,N/A,,Clear,0,2013-04-10 08:55:00
5:15 AM,65.3,54.0,67,30.08,10.0,Calm,Calm,-,N/A,,Clear,0,2013-04-10 09:15:00
5:35 AM,64.8,54.0,68,30.08,10.0,Calm,Calm,-,N/A,,Clear,0,2013-04-10 09:35:00
5:55 AM,63.9,53.8,70,30.08,10.0,Calm,Calm,-,N/A,,Clear,0,2013-04-10 09:55:00
6:15 AM,64.0,53.8,69,30.08,10.0,Calm,Calm,-,N/A,,Clear,0,2013-04-10 10:15:00
6:35 AM,62.2,53.4,73,30.08,10.0,Calm,Calm,-,N/A,,Clear,0,2013-04-10 10:35:00
6:55 AM,58.3,52.9,82,30.09,10.0,Calm,Calm,-,N/A,,Clear,0,2013-04-10 10:55:00
7:15 AM,57.2,52.7,85,30.09,10.0,Calm,Calm,-,N/A,,Clear,0,2013-04-10 11:15:00
7:35 AM,57.7,53.2,85,30.10,10.0,Calm,Calm,-,N/A,,Clear,0,2013-04-10 11:35:00
7:55 AM,60.6,54.7,81,30.10,10.0,Calm,Calm,-,N/A,,Clear,0,2013-04-10 11:55:00
8:15 AM,63.0,55.9,78,30.11,10.0,Calm,Calm,-,N/A,,Clear,0,2013-04-10 12:15:00
8:35 AM,66.2,56.7,71,30.11,10.0,Calm,Calm,-,N/A,,Clear,0,2013-04-10 12:35:00
8:55 AM,69.6,55.4,61,30.11,10.0,SW,3.5,-,N/A,,Clear,220,2013-04-10 12:55:00
9:15 AM,71.4,55.8,58,30.11,10.0,SW,4.6,-,N/A,,Clear,230,2013-04-10 13:15:00
9:35 AM,72.7,55.4,55,30.11,10.0,Calm,Calm,-,N/A,,Clear,0,2013-04-10 13:35:00
9:55 AM,75.0,55.4,50,30.11,10.0,South,3.5,-,N/A,,Clear,170,2013-04-10 13:55:00
10:15 AM,76.8,54.9,46,30.11,10.0,SW,3.5,-,N/A,,Clear,230,2013-04-10 14:15:00
10:55 AM,80.1,54.5,41,30.11,10.0,South,4.6,-,N/A,,Clear,190,2013-04-10 14:55:00
11:15 AM,81.7,54.1,39,30.10,10.0,SW,4.6,-,N/A,,Clear,220,2013-04-10 15:15:00
11:35 AM,82.8,52.7,35,30.10,10.0,SW,4.6,-,N/A,,Clear,230,2013-04-10 15:35:00
11:55 AM,83.7,53.1,35,30.09,10.0,Calm,Calm,-,N/A,,Clear,0,2013-04-10 15:55:00
12:15 PM,84.2,52.9,34,30.09,10.0,WSW,5.8,-,N/A,,Clear,240,2013-04-10 16:15:00
12:35 PM,84.7,52.2,32,30.08,10.0,South,5.8,-,N/A,,Clear,190,2013-04-10 16:35:00
1:15 PM,86.0,51.3,30,30.07,10.0,SW,6.9,-,N/A,,Clear,220,2013-04-10 17:15:00
1:35 PM,86.9,50.9,29,30.06,10.0,SW,8.1,-,N/A,,Clear,230,2013-04-10 17:35:00
2:15 PM,87.3,48.6,26,30.04,10.0,SSW,9.2,-,N/A,,Clear,210,2013-04-10 18:15:00
2:35 PM,88.9,49.8,26,30.04,10.0,SW,10.4,16.1,N/A,,Clear,220,2013-04-10 18:35:00
3:15 PM,88.9,49.8,26,30.02,10.0,WSW,9.2,-,N/A,,Clear,240,2013-04-10 19:15:00
3:35 PM,88.9,50.5,27,30.01,10.0,SSW,8.1,-,N/A,,Clear,210,2013-04-10 19:35:00
3:55 PM,88.2,49.8,27,30.00,10.0,South,5.8,18.4,N/A,,Clear,190,2013-04-10 19:55:00
4:15 PM,88.0,49.3,26,30.00,10.0,SSW,9.2,16.1,N/A,,Clear,210,2013-04-10 20:15:00
4:35 PM,88.0,50.7,28,29.99,10.0,WSW,10.4,16.1,N/A,,Clear,240,2013-04-10 20:35:00
4:55 PM,87.8,50.2,27,29.99,10.0,WSW,4.6,-,N/A,,Clear,240,2013-04-10 20:55:00
5:15 PM,87.1,49.8,28,29.98,10.0,WSW,9.2,-,N/A,,Clear,240,2013-04-10 21:15:00
5:35 PM,86.4,50.4,29,29.97,10.0,SW,5.8,18.4,N/A,,Clear,230,2013-04-10 21:35:00
5:55 PM,85.8,51.4,30,29.97,10.0,SW,8.1,16.1,N/A,,Clear,220,2013-04-10 21:55:00
6:15 PM,85.5,52.5,32,29.97,10.0,SW,5.8,-,N/A,,Clear,220,2013-04-10 22:15:00
6:35 PM,85.1,52.5,32,29.96,10.0,SW,5.8,-,N/A,,Clear,220,2013-04-10 22:35:00
6:55 PM,84.0,52.2,33,29.96,10.0,SW,5.8,-,N/A,,Clear,230,2013-04-10 22:55:00
7:15 PM,82.0,53.1,37,29.96,10.0,SSW,5.8,-,N/A,,Clear,200,2013-04-10 23:15:00
7:35 PM,80.6,53.6,39,29.96,10.0,SW,5.8,-,N/A,,Clear,220,2013-04-10 23:35:00
7:55 PM,80.1,54.0,40,29.97,10.0,SSW,4.6,-,N/A,,Clear,210,2013-04-10 23:55:00
8:15 PM,78.1,54.1,43,29.97,10.0,SSW,3.5,-,N/A,,Clear,200,2013-04-11 00:15:00
8:35 PM,77.5,54.5,45,29.97,10.0,SSW,4.6,-,N/A,,Clear,210,2013-04-11 00:35:00
8:55 PM,76.6,55.0,47,29.97,10.0,SSW,4.6,-,N/A,,Clear,200,2013-04-11 00:55:00
9:15 PM,75.9,55.2,49,29.97,10.0,SSW,3.5,-,N/A,,Clear,200,2013-04-11 01:15:00
9:35 PM,75.2,55.2,50,29.98,10.0,South,3.5,-,N/A,,Clear,190,2013-04-11 01:35:00
9:55 PM,73.8,55.6,53,29.98,10.0,Calm,Calm,-,N/A,,Clear,0,2013-04-11 01:55:00
10:15 PM,73.6,55.4,53,29.98,10.0,SSW,4.6,-,N/A,,Clear,200,2013-04-11 02:15:00
10:55 PM,73.2,55.4,54,29.97,10.0,SSW,3.5,-,N/A,,Clear,210,2013-04-11 02:55:00
11:15 PM,70.5,55.8,59,29.97,10.0,Calm,Calm,-,N/A,,Clear,0,2013-04-11 03:15:00
11:35 PM,68.5,55.9,64,29.97,10.0,SSW,3.5,-,N/A,,Clear,200,2013-04-11 03:35:00
11:55 PM,68.0,55.8,65,29.97,10.0,SSW,3.5,-,N/A,,Clear,200,2013-04-11 03:55:00